Weather History for Jackson, WY

Change the Weather History Date:

Friday, March 1, 2013

  Actual Average Record
Temperature  
Mean Temperature 28 °F -  
Max Temperature 35 °F 35 °F 44 °F (1959)
Min Temperature 21 °F 10 °F -25 °F (1960)
Degree Days  
Heating Degree Days 37    
Moisture  
Dew Point 24 °F    
Average Humidity 91    
Maximum Humidity 100    
Minimum Humidity 70    
Precipitation  
Precipitation 0.00 in - - ()
Sea Level Pressure  
Sea Level Pressure 30.43 in    
Wind  
Wind Speed 5 mph (NNE)    
Max Wind Speed 16 mph    
Max Gust Speed -    
Visibility 8 miles    
Events      
Averages and records for this station are not official NWS values.
T = Trace of Precipitation, MM = Missing Value Source: NWS Daily Summary

Daily Weather History Graph

Daily Weather History Graph

Search for Another Location

Airport:

Trip Planner

Search our weather history database for the weather conditions in past years. The results will help you decide how hot, cold, wet, or windy it might be!

Date:

Astronomy

Mar. 01, 2013 Rise Set
Actual Time 6:58 AM MST 6:12 PM MST
Civil Twilight 6:30 AM MST 6:40 PM MST
Nautical Twilight 5:57 AM MST 7:14 PM MST
Astronomical Twilight 5:23 AM MST 7:47 PM MST
Moon 10:59 PM MST (3/1) 8:38 AM MST (3/1)
Length of Visible Light 12h 10m
Length of Day
11h 13m
Waning Gibbous, 83% of the Moon is Illuminated
Mar 1
Waning Gibbous
Mar 4
Last Quarter
Mar 11
New
Mar 19
First Quarter
Mar 27
Full

Hourly Weather History & Observations

Time (MST) Temp. Windchill Dew Point Humidity Pressure Visibility Wind Dir Wind Speed Gust Speed Precip Events Conditions
12:15 AM 21.2 °F 16.4 °F 21.2 °F 100% 30.38 in 9.0 mi NE 3.5 mph - N/A   Overcast
12:35 AM 21.2 °F 13.6 °F 21.2 °F 100% 30.38 in 5.0 mi North 5.8 mph - N/A   Overcast
12:55 AM 21.2 °F - 21.2 °F 100% 30.39 in 5.0 mi Calm Calm - N/A   Overcast
1:15 AM 21.2 °F 14.9 °F 21.2 °F 100% 30.40 in 3.0 mi North 4.6 mph - N/A   Overcast
1:35 AM 21.2 °F 16.4 °F 21.2 °F 100% 30.39 in 2.5 mi North 3.5 mph - N/A   Overcast
2:15 AM 21.2 °F - 21.2 °F 100% 30.40 in 2.5 mi Calm Calm - N/A   Overcast
3:15 AM 21.2 °F 11.7 °F 21.2 °F 100% 30.39 in 3.0 mi North 8.1 mph - N/A   Overcast
3:35 AM 21.2 °F 12.6 °F 19.4 °F 93% 30.39 in 2.5 mi North 6.9 mph - N/A   Overcast
3:55 AM 21.2 °F 11.7 °F 21.2 °F 100% 30.39 in 3.0 mi North 8.1 mph - N/A   Overcast
4:15 AM 21.2 °F 12.6 °F 19.4 °F 93% 30.40 in 3.0 mi NNW 6.9 mph - N/A   Overcast
4:55 AM 21.2 °F 10.9 °F 19.4 °F 93% 30.41 in 5.0 mi North 9.2 mph - N/A   Overcast
5:15 AM 21.2 °F 12.6 °F 19.4 °F 93% 30.42 in 8.0 mi North 6.9 mph - N/A   Overcast
5:35 AM 21.2 °F 14.9 °F 19.4 °F 93% 30.42 in 6.0 mi NE 4.6 mph - N/A   Overcast
5:55 AM 21.2 °F 10.9 °F 19.4 °F 93% 30.43 in 9.0 mi North 9.2 mph - N/A   Overcast
6:52 AM 21.2 °F - 19.4 °F 93% 30.43 in 10.0 mi Calm Calm - N/A   Overcast
7:52 AM 23.0 °F 15.8 °F 21.2 °F 93% 30.45 in 10.0 mi NE 5.8 mph - N/A   Overcast
8:53 AM 24.8 °F - 23.0 °F 93% 30.46 in 10.0 mi Calm Calm - N/A   Overcast
10:55 AM 28.4 °F - 24.8 °F 86% 30.43 in 10.0 mi Calm Calm - N/A   Scattered Clouds
11:51 AM 30.2 °F - 26.6 °F 86% 30.44 in 10.0 mi Calm Calm - N/A   Scattered Clouds
12:56 PM 30.2 °F 25.4 °F 26.6 °F 86% 30.42 in 10.0 mi ESE 4.6 mph - N/A   Scattered Clouds
2:35 PM 33.8 °F - 26.6 °F 75% 30.41 in 10.0 mi Calm Calm - N/A   Mostly Cloudy
2:51 PM 35.6 °F - 26.6 °F 70% 30.41 in 10.0 mi Calm Calm - N/A   Mostly Cloudy
3:51 PM 35.6 °F 32.8 °F 28.4 °F 75% 30.43 in 10.0 mi NE 3.5 mph - N/A   Mostly Cloudy
4:51 PM 35.6 °F - 28.4 °F 75% 30.43 in 10.0 mi Calm Calm - N/A   Mostly Cloudy
5:51 PM 35.6 °F 25.9 °F 28.4 °F 75% 30.43 in 10.0 mi SSW 16.1 mph - N/A   Mostly Cloudy
6:56 PM 33.8 °F 25.8 °F 28.4 °F 81% 30.44 in 10.0 mi SSE 10.4 mph - N/A   Scattered Clouds
7:52 PM 33.8 °F 27.7 °F 28.4 °F 81% 30.44 in 10.0 mi South 6.9 mph - N/A   Mostly Cloudy
8:52 PM 30.2 °F - 26.6 °F 86% 30.45 in 10.0 mi Calm Calm - N/A   Mostly Cloudy
8:55 PM 30.2 °F - 26.6 °F 86% 30.45 in 10.0 mi Calm Calm - N/A   Mostly Cloudy
9:15 PM 28.4 °F 22.2 °F 26.6 °F 93% 30.45 in 10.0 mi North 5.8 mph - N/A   Mostly Cloudy
9:35 PM 26.6 °F 19.1 °F 24.8 °F 93% 30.46 in 10.0 mi North 6.9 mph - N/A   Mostly Cloudy
9:55 PM 28.4 °F 21.2 °F 26.6 °F 93% 30.45 in 10.0 mi North 6.9 mph - N/A   Mostly Cloudy
10:15 PM 26.6 °F 19.1 °F 24.8 °F 93% 30.45 in 10.0 mi NNE 6.9 mph - N/A   Mostly Cloudy
10:35 PM 26.6 °F 16.8 °F 24.8 °F 93% 30.45 in 10.0 mi North 10.4 mph - N/A   Mostly Cloudy
10:55 PM 26.6 °F 16.8 °F 24.8 °F 93% 30.45 in 10.0 mi North 10.4 mph - N/A   Mostly Cloudy
11:15 PM 24.8 °F 16.1 °F 24.8 °F 100% 30.46 in 10.0 mi North 8.1 mph - N/A   Mostly Cloudy
11:35 PM 24.8 °F 19.1 °F 24.8 °F 100% 30.46 in 10.0 mi NNW 4.6 mph - N/A   Overcast
11:55 PM 26.6 °F 16.2 °F 24.8 °F 93% 30.46 in 10.0 mi North 11.5 mph - N/A   Overcast